Weather History for Salina, KS

Change the Weather History Date:

Monday, March 31, 2014

  Actual Average Record
Temperature  
Mean Temperature 54 °F 50 °F  
Max Temperature 72 °F 62 °F 89 °F (1978)
Min Temperature 36 °F 38 °F 16 °F (1926)
Degree Days  
Heating Degree Days 11 15  
Month to date heating degree days 735 608  
Since 1 July heating degree days 4985 4450  
Cooling Degree Days 0 0  
Month to date cooling degree days 0 2  
Year to date cooling degree days 0 2  
Growing Degree Days 6 (Base 50)    
Moisture  
Dew Point 31 °F    
Average Humidity 36    
Maximum Humidity 52    
Minimum Humidity 20    
Precipitation  
Precipitation 0.00 in 0.09 in 1.27 in (1973)
Month to date precipitation 0.30 2.39  
Year to date precipitation 2.11 4.19  
Sea Level Pressure  
Sea Level Pressure 29.70 in    
Wind  
Wind Speed 24 mph (WSW)    
Max Wind Speed 39 mph    
Max Gust Speed 49 mph    
Visibility 10 miles    
Events Rain    
T = Trace of Precipitation, MM = Missing Value Source: NWS Daily Summary

Daily Weather History Graph

Daily Weather History Graph

Search for Another Location

Airport:

Trip Planner

Search our weather history database for the weather conditions in past years. The results will help you decide how hot, cold, wet, or windy it might be!

Date:

Astronomy

Mar. 31, 2014 Rise Set
Actual Time 7:16 AM CDT 7:53 PM CDT
Civil Twilight 6:50 AM CDT 8:20 PM CDT
Nautical Twilight 6:18 AM CDT 8:51 PM CDT
Astronomical Twilight 5:46 AM CDT 9:24 PM CDT
Moon 7:41 AM CDT (3/31) 9:12 PM CDT (3/31)
Length of Visible Light 13h 30m
Length of Day
12h 36m
New Moon, 1% of the Moon is Illuminated
Mar 31
New Moon
Apr 7
First Quarter
Apr 15
Full
Apr 22
Last Quarter
Apr 29
New

Hourly Weather History & Observations

Time (CDT) Temp. Windchill Dew Point Humidity Pressure Visibility Wind Dir Wind Speed Gust Speed Precip Events Conditions
12:53 AM 66.0 °F - 36.0 °F 33% 29.60 in 10.0 mi South 31.1 mph 40.3 mph N/A   Clear
1:53 AM 64.0 °F - 37.0 °F 37% 29.58 in 10.0 mi South 25.3 mph 34.5 mph N/A   Clear
2:53 AM 64.0 °F - 37.9 °F 38% 29.54 in 10.0 mi South 26.5 mph 42.6 mph N/A   Clear
3:53 AM 64.0 °F - 39.9 °F 41% 29.50 in 10.0 mi South 27.6 mph 40.3 mph N/A   Clear
4:53 AM 63.0 °F - 41.0 °F 45% 29.49 in 10.0 mi South 32.2 mph 41.4 mph N/A   Clear
5:53 AM 62.1 °F - 42.1 °F 48% 29.50 in 10.0 mi SSW 26.5 mph 35.7 mph N/A   Clear
6:53 AM 62.1 °F - 43.0 °F 50% 29.53 in 10.0 mi SSW 21.9 mph 35.7 mph N/A   Overcast
7:53 AM 61.0 °F - 43.0 °F 52% 29.54 in 10.0 mi SSW 21.9 mph - N/A   Overcast
8:53 AM 64.0 °F - 43.0 °F 46% 29.55 in 10.0 mi SSW 21.9 mph - N/A   Overcast
9:53 AM 71.1 °F - 32.0 °F 24% 29.55 in 10.0 mi SW 23.0 mph 33.4 mph 0.00 in Rain Light Rain
10:53 AM 72.0 °F - 19.9 °F 14% 29.57 in 10.0 mi West 27.6 mph 34.5 mph 0.00 in   Clear
11:53 AM 72.0 °F - 32.0 °F 23% 29.60 in 10.0 mi WNW 28.8 mph 36.8 mph N/A   Clear
12:53 PM 70.0 °F - 32.0 °F 25% 29.64 in 9.0 mi West 29.9 mph 36.8 mph N/A   Overcast
1:53 PM 69.1 °F - 30.0 °F 23% 29.66 in 8.0 mi West 33.4 mph 47.2 mph N/A   Overcast
2:53 PM 66.9 °F - 28.0 °F 23% 29.70 in 10.0 mi West 29.9 mph 41.4 mph N/A   Overcast
3:53 PM 66.0 °F - 25.0 °F 21% 29.73 in 10.0 mi West 29.9 mph 41.4 mph N/A   Overcast
4:53 PM 64.0 °F - 25.0 °F 23% 29.76 in 10.0 mi WNW 31.1 mph 40.3 mph N/A   Clear
5:53 PM 61.0 °F - 24.1 °F 24% 29.81 in 10.0 mi WNW 26.5 mph 41.4 mph N/A   Overcast
6:53 PM 55.9 °F - 23.0 °F 28% 29.86 in 9.0 mi WNW 28.8 mph 36.8 mph N/A   Clear
7:53 PM 50.0 °F - 21.9 °F 33% 29.93 in 10.0 mi NW 17.3 mph - N/A   Clear
8:53 PM 46.0 °F 39.0 °F 21.9 °F 39% 29.99 in 10.0 mi NNW 17.3 mph - N/A   Clear
9:53 PM 42.1 °F 34.2 °F 21.9 °F 45% 30.03 in 10.0 mi NW 16.1 mph - N/A   Clear
10:53 PM 39.0 °F 30.6 °F 21.0 °F 49% 30.05 in 10.0 mi NNW 15.0 mph - N/A   Clear
11:53 PM 37.9 °F 30.5 °F 21.9 °F 53% 30.06 in 10.0 mi NNW 11.5 mph - N/A   Clear